Home > Weather > Paris > Past weeks

Flag for France Past Weather in Paris, Île-de-France, France — Yesterday and Last 2 Weeks

Now
70 °F

Broken clouds.


Feels Like: 70 °F
Forecast: 57 / 69 °F
Wind: 10 mph from Southwest

Location: Villacoublay

Current Time: Jun 30, 2016 at 5:58:03 PM

Latest Report: Jun 30, 2016 at 5:30 PM


Visibility: N/A

Pressure: 29.95 "Hg

Humidity: 78%

Dew Point: 63 °F

Location of ParisLocation

Past Weather in Paris — Graph

°F

Paris Temperature Yesterday

Maximum temperature yesterday: 72 °F (at 2:30 PM)
Minimum temperature yesterday: 54 °F (at 6:00 AM)
Average temperature yesterday: 64 °F

High & Low Weather Summary for the Past Weeks

 TemperatureHumidityPressure
High86 °F (Jun 23, 3:00 PM)100% (Jun 16, 6:00 AM)30.30 "Hg (Jun 16, 6:00 AM)
Low52 °F (Jun 26, 3:30 AM)46% (Jun 26, 6:30 PM)29.53 "Hg (Jun 15, 4:00 PM)
Average63 °F79%30.02 "Hg
* Reported Jun 15 4:00 PM — Jun 30 4:30 PM, Paris, Weather by CustomWeather, © 2016

Note: Actual official high and low records may vary slightly from our data, if they occured in-between our weather recording intervals... More about our weather records

Advertising

Paris Weather History for the Previous 24 Hours

Scroll right to see more
 ConditionsComfort  
Time TempWeatherWind HumidityBarometerVisibility
4:30 PM
Thu, Jun 30
70 °FBroken clouds.13 mph78%29.95 "HgN/A
4:00 PM68 °FMild.13 mph83%29.95 "HgN/A
3:30 PM64 °FLight rain. Broken clouds.10 mph94%29.95 "HgN/A
3:00 PM68 °FPartly sunny.15 mph78%29.95 "HgN/A
2:30 PM68 °FOvercast.12 mph73%29.95 "HgN/A
2:00 PM68 °FMostly cloudy.12 mph78%29.95 "HgN/A
1:30 PM64 °FMostly cloudy.10 mph83%29.98 "HgN/A
1:00 PM64 °FMostly cloudy.13 mph83%29.98 "HgN/A
12:30 PM63 °FOvercast.10 mph88%29.98 "HgN/A
12:00 PM63 °FOvercast.12 mph88%29.95 "HgN/A
11:30 AM63 °FOvercast.10 mph83%29.95 "HgN/A
11:00 AM63 °FOvercast.9 mph83%29.95 "HgN/A
10:30 AM63 °FOvercast.10 mph83%29.95 "HgN/A
10:00 AM63 °FMostly cloudy.13 mph83%29.95 "HgN/A
9:30 AM63 °FOvercast.13 mph83%29.95 "HgN/A
9:00 AM61 °FOvercast.9 mph83%29.95 "HgN/A
8:30 AM61 °FOvercast.10 mph83%29.95 "HgN/A
8:00 AM59 °FMostly cloudy.9 mph88%29.95 "HgN/A
7:30 AM59 °FLight rain. Broken clouds.9 mph88%29.92 "HgN/A
7:00 AM59 °FOvercast.9 mph88%29.92 "HgN/A
6:30 AM59 °FOvercast.9 mph82%29.92 "HgN/A
6:00 AM59 °FOvercast.10 mph82%29.92 "HgN/A
5:30 AM59 °FPassing clouds.10 mph82%29.92 "HgN/A
5:00 AM59 °FClear.8 mph82%29.92 "Hg10 mi
4:30 AM59 °FPassing clouds.7 mph82%29.92 "HgN/A
4:00 AM59 °FPassing clouds.9 mph82%29.92 "HgN/A
3:30 AM61 °FPassing clouds.8 mph77%29.92 "HgN/A
3:00 AM61 °FPassing clouds.8 mph72%29.92 "HgN/A
2:30 AM61 °FPassing clouds.9 mph72%29.92 "HgN/A
2:00 AM61 °FClear.8 mph72%29.92 "Hg10 mi
1:30 AM61 °FPassing clouds.8 mph72%29.92 "HgN/A
1:00 AM61 °FOvercast.10 mph72%29.92 "HgN/A
12:30 AM61 °FPassing clouds.7 mph77%29.92 "HgN/A
12:00 AM61 °FClear.7 mph77%29.92 "Hg10 mi
11:30 PM
Wed, Jun 29
63 °FClear.9 mph73%29.92 "Hg10 mi
11:00 PM63 °FClear.7 mph68%29.92 "Hg10 mi
10:30 PM63 °FPassing clouds.6 mph73%29.92 "HgN/A
10:00 PM63 °FPassing clouds.8 mph73%29.92 "HgN/A
9:30 PM64 °FSunny.7 mph68%29.92 "Hg10 mi
9:00 PM64 °FSunny.7 mph68%29.92 "Hg10 mi
8:30 PM66 °FSunny.9 mph60%29.92 "Hg10 mi
8:00 PM68 °FPassing clouds.9 mph56%29.92 "HgN/A
7:30 PM68 °FSunny.13 mph56%29.89 "Hg10 mi
7:00 PM70 °FPassing clouds.10 mph57%29.89 "HgN/A
6:30 PM70 °FPassing clouds.13 mph53%29.89 "HgN/A
6:00 PM70 °FPassing clouds.14 mph53%29.92 "HgN/A
5:30 PM70 °FPassing clouds.13 mph53%29.92 "HgN/A
5:00 PM72 °FPassing clouds.13 mph50%29.92 "HgN/A
Weather by CustomWeather, © 2016

See weather overviewHow to use our weather pages